• In Schweiz
  • Länderverzeichnis
  • Für 7 Tage
  • Wassertemperatur
  • Satellitenkarten
  • Wetterkarte
  • Widgets
  • user-avatar
    Anmelden

    Stündliche Wetter Novoe Amesevo

    Heute, 18 Juli, Mittwoch

    Zeit Temperatur Niederschläge Wind Luftdruck Luftfeuchtigkeit
    00:00 +20°C° 0 mm 4 m/S 742 mmHg 91%
    01:00 +20°C° 0,1 mm 4 m/S 742 mmHg 92%
    02:00 +20°C° 0,1 mm 5 m/S 742 mmHg 92%
    03:00 +20°C° 0 mm 4 m/S 742 mmHg 93%
    04:00 +20°C° 0,4 mm 4 m/S 742 mmHg 94%
    05:00 +20°C° 0,4 mm 4 m/S 741 mmHg 95%
    06:00 +20°C° 0,4 mm 5 m/S 741 mmHg 95%
    07:00 +21°C° 0,3 mm 5 m/S 741 mmHg 94%
    08:00 +21°C° 0,3 mm 5 m/S 741 mmHg 92%
    09:00 +21°C° 0 mm 6 m/S 741 mmHg 90%
    10:00 +22°C° 0,5 mm 5 m/S 741 mmHg 88%
    11:00 +22°C° 0,5 mm 5 m/S 741 mmHg 87%
    12:00 +22°C° 0,5 mm 5 m/S 741 mmHg 86%
    13:00 +23°C° 0,6 mm 5 m/S 741 mmHg 84%
    14:00 +25°C° 0,6 mm 5 m/S 741 mmHg 81%
    15:00 +25°C° 0,6 mm 5 m/S 741 mmHg 79%
    16:00 +25°C° 0,5 mm 5 m/S 741 mmHg 80%
    17:00 +25°C° 0,5 mm 5 m/S 741 mmHg 82%
    18:00 +23°C° 0,5 mm 5 m/S 741 mmHg 84%
    19:00 +22°C° 0,1 mm 4 m/S 741 mmHg 87%
    20:00 +21°C° 0,1 mm 4 m/S 741 mmHg 90%
    21:00 +20°C° 0,1 mm 4 m/S 741 mmHg 93%
    22:00 +20°C° 0 mm 4 m/S 741 mmHg 94%
    23:00 +19°C° 0 mm 3 m/S 741 mmHg 95%

    Morgen, 19 Juli, Donnerstag

    Zeit Temperatur Niederschläge Wind Luftdruck Luftfeuchtigkeit
    00:00 +19°C° 0 mm 3 m/S 742 mmHg 96%
    01:00 +19°C° 0 mm 3 m/S 742 mmHg 96%
    02:00 +19°C° 0 mm 3 m/S 742 mmHg 96%
    03:00 +19°C° 0 mm 3 m/S 742 mmHg 96%
    04:00 +19°C° 0 mm 3 m/S 742 mmHg 95%
    05:00 +19°C° 0 mm 3 m/S 742 mmHg 95%
    06:00 +19°C° 0 mm 3 m/S 742 mmHg 94%
    07:00 +20°C° 0,1 mm 4 m/S 742 mmHg 93%
    08:00 +20°C° 0,1 mm 4 m/S 742 mmHg 91%
    09:00 +21°C° 0,1 mm 4 m/S 742 mmHg 89%
    10:00 +22°C° 0,3 mm 4 m/S 743 mmHg 86%
    11:00 +22°C° 0,3 mm 4 m/S 743 mmHg 83%
    12:00 +23°C° 0,3 mm 4 m/S 743 mmHg 80%
    13:00 +25°C° 0,5 mm 4 m/S 743 mmHg 79%
    14:00 +25°C° 0,5 mm 4 m/S 743 mmHg 77%
    15:00 +26°C° 0,5 mm 4 m/S 743 mmHg 76%
    16:00 +26°C° 0,3 mm 4 m/S 743 mmHg 76%
    17:00 +26°C° 0,3 mm 4 m/S 743 mmHg 75%
    18:00 +26°C° 0,3 mm 3 m/S 743 mmHg 75%
    19:00 +25°C° 0,2 mm 3 m/S 743 mmHg 80%
    20:00 +22°C° 0,2 mm 3 m/S 743 mmHg 86%
    21:00 +21°C° 0,2 mm 3 m/S 743 mmHg 92%
    22:00 +20°C° 0 mm 3 m/S 743 mmHg 93%
    23:00 +20°C° 0 mm 3 m/S 744 mmHg 94%

    übermorgen, 20 Juli, Freitag

    Zeit Temperatur Niederschläge Wind Luftdruck Luftfeuchtigkeit
    00:00 +20°C° 0 mm 3 m/S 744 mmHg 95%
    01:00 +19°C° 0 mm 3 m/S 744 mmHg 95%
    02:00 +19°C° 0 mm 3 m/S 744 mmHg 95%
    03:00 +19°C° 0 mm 3 m/S 744 mmHg 95%
    04:00 +19°C° 0,2 mm 3 m/S 744 mmHg 94%
    05:00 +20°C° 0,2 mm 3 m/S 745 mmHg 92%
    06:00 +20°C° 0,2 mm 3 m/S 745 mmHg 90%
    07:00 +21°C° 0,7 mm 3 m/S 745 mmHg 88%
    08:00 +22°C° 0,7 mm 4 m/S 745 mmHg 86%
    09:00 +23°C° 0,7 mm 4 m/S 745 mmHg 84%
    10:00 +26°C° 1 mm 4 m/S 745 mmHg 80%
    11:00 +27°C° 1 mm 4 m/S 745 mmHg 75%
    12:00 +28°C° 1 mm 4 m/S 745 mmHg 70%
    13:00 +29°C° 0,4 mm 4 m/S 745 mmHg 67%
    14:00 +29°C° 0,4 mm 4 m/S 746 mmHg 63%
    15:00 +30°C° 0,4 mm 3 m/S 746 mmHg 60%
    16:00 +29°C° 0,4 mm 3 m/S 746 mmHg 64%
    17:00 +29°C° 0,4 mm 3 m/S 746 mmHg 69%
    18:00 +28°C° 0,4 mm 3 m/S 746 mmHg 73%
    19:00 +27°C° 0,1 mm 3 m/S 746 mmHg 79%
    20:00 +25°C° 0,1 mm 2 m/S 746 mmHg 84%
    21:00 +23°C° 0,1 mm 2 m/S 746 mmHg 90%
    22:00 +23°C° 0 mm 2 m/S 746 mmHg 91%
    23:00 +23°C° 0 mm 2 m/S 746 mmHg 93%

    21 Juli, Samstag

    Zeit Temperatur Niederschläge Wind Luftdruck Luftfeuchtigkeit
    00:00 +21°C° 0 mm 2 m/S 746 mmHg 94%
    01:00 +21°C° 0,7 mm 2 m/S 746 mmHg 95%
    02:00 +21°C° 0,7 mm 2 m/S 746 mmHg 95%
    03:00 +20°C° 0,7 mm 2 m/S 746 mmHg 95%
    04:00 +21°C° 0,2 mm 2 m/S 746 mmHg 95%
    05:00 +21°C° 0,2 mm 3 m/S 746 mmHg 94%
    06:00 +21°C° 0,2 mm 3 m/S 746 mmHg 93%
    07:00 +22°C° 0 mm 3 m/S 746 mmHg 87%
    08:00 +25°C° 0 mm 4 m/S 746 mmHg 82%
    09:00 +26°C° 0 mm 4 m/S 746 mmHg 76%
    10:00 +28°C° 0 mm 4 m/S 746 mmHg 70%
    11:00 +29°C° 0 mm 5 m/S 746 mmHg 63%
    12:00 +32°C° 0 mm 5 m/S 746 mmHg 57%
    13:00 +32°C° 0,1 mm 5 m/S 746 mmHg 56%
    14:00 +32°C° 0,1 mm 4 m/S 746 mmHg 55%
    15:00 +33°C° 0,1 mm 4 m/S 746 mmHg 55%
    16:00 +31°C° 0,6 mm 3 m/S 746 mmHg 62%
    17:00 +30°C° 0,6 mm 3 m/S 746 mmHg 69%
    18:00 +29°C° 0,6 mm 2 m/S 746 mmHg 76%
    19:00 +27°C° 0,1 mm 2 m/S 746 mmHg 80%
    20:00 +26°C° 0,1 mm 2 m/S 747 mmHg 84%
    21:00 +24°C° 0,1 mm 2 m/S 747 mmHg 88%
    22:00 +24°C° 0,2 mm 2 m/S 747 mmHg 90%
    23:00 +23°C° 0,2 mm 2 m/S 747 mmHg 91%

    22 Juli, Sonntag

    Zeit Temperatur Niederschläge Wind Luftdruck Luftfeuchtigkeit
    00:00 +21°C° 0,2 mm 2 m/S 747 mmHg 93%
    01:00 +21°C° 0,1 mm 2 m/S 747 mmHg 94%
    02:00 +21°C° 0,1 mm 2 m/S 747 mmHg 94%
    03:00 +20°C° 0,1 mm 2 m/S 747 mmHg 95%
    04:00 +20°C° 0 mm 2 m/S 747 mmHg 94%
    05:00 +21°C° 0 mm 2 m/S 747 mmHg 93%
    06:00 +21°C° 0 mm 2 m/S 747 mmHg 92%
    07:00 +24°C° 0 mm 2 m/S 747 mmHg 86%
    08:00 +25°C° 0 mm 3 m/S 747 mmHg 80%
    09:00 +27°C° 0 mm 3 m/S 747 mmHg 74%
    10:00 +28°C° 0,1 mm 3 m/S 747 mmHg 67%
    11:00 +30°C° 0,1 mm 4 m/S 747 mmHg 60%
    12:00 +32°C° 0,1 mm 4 m/S 747 mmHg 54%
    13:00 +32°C° 0,3 mm 4 m/S 746 mmHg 54%
    14:00 +32°C° 0,3 mm 4 m/S 746 mmHg 54%
    15:00 +32°C° 0,3 mm 4 m/S 746 mmHg 54%
    16:00 +32°C° 0,6 mm 4 m/S 746 mmHg 59%
    17:00 +30°C° 0,6 mm 4 m/S 746 mmHg 65%
    18:00 +29°C° 0,6 mm 4 m/S 746 mmHg 70%
    19:00 +27°C° 0,5 mm 3 m/S 746 mmHg 76%
    20:00 +26°C° 0,5 mm 3 m/S 746 mmHg 83%
    21:00 +24°C° 0,5 mm 3 m/S 747 mmHg 89%
    22:00 +22°C° 0,1 mm 3 m/S 747 mmHg 91%
    23:00 +22°C° 0,1 mm 3 m/S 747 mmHg 92%

    23 Juli, Montag

    Zeit Temperatur Niederschläge Wind Luftdruck Luftfeuchtigkeit
    00:00 +21°C° 0,1 mm 3 m/S 747 mmHg 94%
    01:00 +21°C° 0,1 mm 3 m/S 747 mmHg 95%
    02:00 +21°C° 0,1 mm 3 m/S 747 mmHg 96%
    03:00 +21°C° 0,1 mm 3 m/S 747 mmHg 96%
    04:00 +21°C° 0,5 mm 3 m/S 747 mmHg 96%
    05:00 +21°C° 0,5 mm 3 m/S 747 mmHg 95%
    06:00 +21°C° 0,5 mm 3 m/S 747 mmHg 94%
    07:00 +22°C° 0,4 mm 3 m/S 747 mmHg 91%
    08:00 +23°C° 0,4 mm 4 m/S 747 mmHg 87%
    09:00 +26°C° 0,4 mm 4 m/S 747 mmHg 83%
    10:00 +27°C° 0,6 mm 4 m/S 747 mmHg 77%
    11:00 +28°C° 0,6 mm 4 m/S 747 mmHg 70%
    12:00 +30°C° 0,6 mm 4 m/S 747 mmHg 64%
    13:00 +29°C° 1,1 mm 4 m/S 747 mmHg 66%
    14:00 +29°C° 1,1 mm 4 m/S 747 mmHg 69%
    15:00 +29°C° 1,1 mm 4 m/S 747 mmHg 72%
    16:00 +28°C° 0,8 mm 4 m/S 747 mmHg 76%
    17:00 +27°C° 0,8 mm 4 m/S 747 mmHg 80%
    18:00 +26°C° 0,8 mm 4 m/S 748 mmHg 84%
    19:00 +25°C° 0,7 mm 4 m/S 748 mmHg 86%
    20:00 +23°C° 0,7 mm 4 m/S 748 mmHg 88%
    21:00 +24°C° 0,7 mm 3 m/S 748 mmHg 91%
    22:00 +22°C° 0,4 mm 4 m/S 748 mmHg 92%
    23:00 +22°C° 0,4 mm 4 m/S 748 mmHg 93%
    Mehr zeigen